CW3094 Weather Reports


Display with metric or nautical units.
time (UTC)temp
F
wind
direction
speed
MPH
gust
MPH
rain 1hr
in
rain 24hr
in
rain mn
in
humidity
%
barometer
mb
20180116093401 18 27 0.0 0.0 0.00 0.00 0.00 91 1031.9
20180116092403 18 27 0.0 0.0 0.00 0.00 0.00 91 1031.6
20180116091400 18 27 0.0 3.0 0.00 0.00 0.00 92 1031.7
20180116090401 18 121 0.0 5.0 0.00 0.00 0.00 92 1031.6
20180116085404 17 67 2.0 3.0 0.00 0.00 0.00 92 1031.9
20180116084401 18 256 2.0 3.0 0.00 0.00 0.00 93 1032.1
20180116083402 18 38 0.0 0.0 0.00 0.00 0.00 93 1032.1
20180116082403 17 38 0.0 0.0 0.00 0.00 0.00 94 1032.0
20180116081401 17 38 0.0 2.0 0.00 0.00 0.00 95 1031.8
20180116080402 16 53 1.0 2.0 0.00 0.00 0.00 95 1031.9
20180116075404 16 344 0.0 5.0 0.00 0.00 0.00 96 1031.9
20180116074359 15 25 1.0 5.0 0.00 0.00 0.00 96 1031.8
20180116073402 15 302 0.0 1.0 0.00 0.00 0.00 96 1031.9
20180116072405 13 302 1.0 2.0 0.00 0.00 0.00 97 1032.0
20180116071400 13 13 0.0 3.0 0.00 0.00 0.00 96 1031.7
20180116070401 13 40 1.0 2.0 0.00 0.00 0.00 96 1031.6
20180116065403 13 10 0.0 5.0 0.00 0.00 0.00 96 1031.7
20180116064400 13 313 0.0 2.0 0.00 0.00 0.00 96 1031.5
20180116063402 14 311 1.0 3.0 0.00 0.00 0.00 96 1031.4
20180116062404 14 4 1.0 2.0 0.00 0.00 0.00 96 1031.2
20180116061400 14 32 1.0 3.0 0.00 0.00 0.00 96 1031.4
20180116060401 13 41 1.0 5.0 0.00 0.00 0.00 96 1031.6
20180116055405 14 52 2.0 6.0 0.00 0.00 0.00 96 1031.3
20180116054400 14 76 2.0 5.0 0.00 0.00 0.00 96 1031.3
20180116053402 13 25 1.0 5.0 0.00 0.00 0.00 96 1031.5
20180116052403 14 56 1.0 3.0 0.00 0.00 0.00 95 1031.8
20180116051359 13 292 0.0 0.0 0.00 0.00 0.00 95 1031.9
20180116050401 14 17 0.0 1.0 0.00 0.00 0.00 95 1031.6
20180116045403 14 27 1.0 3.0 0.00 0.00 0.00 94 1031.5
20180116044359 14 61 1.0 5.0 0.00 0.00 0.00 93 1031.7
20180116043403 15 336 0.0 1.0 0.00 0.00 0.00 93 1031.9
20180116042404 15 328 1.0 2.0 0.00 0.00 0.00 92 1032.0
20180116041401 15 24 0.0 1.0 0.00 0.00 0.00 91 1032.0
20180116040403 15 25 0.0 3.0 0.00 0.00 0.00 91 1032.1
20180116035404 15 28 0.0 3.0 0.00 0.00 0.00 90 1032.1
20180116034359 16 16 0.0 3.0 0.00 0.00 0.00 89 1032.4
20180116033401 16 85 1.0 2.0 0.00 0.00 0.00 87 1032.5
20180116032402 17 86 1.0 6.0 0.00 0.00 0.00 86 1032.6
20180116031359 19 83 3.0 5.0 0.00 0.00 0.00 84 1032.2
20180116030402 18 107 0.0 5.0 0.00 0.00 0.00 84 1032.7
20180116025403 19 59 2.0 5.0 0.00 0.00 0.00 83 1032.6
20180116024400 19 86 2.0 6.0 0.00 0.00 0.00 84 1032.8
20180116023402 18 69 2.0 3.0 0.00 0.00 0.00 83 1032.9
20180116022403 19 49 2.0 3.0 0.00 0.00 0.00 83 1033.0
20180116021401 19 61 1.0 5.0 0.00 0.00 0.00 83 1033.1
20180116020402 19 73 3.0 5.0 0.00 0.00 0.00 83 1033.1
20180116015404 20 48 2.0 5.0 0.00 0.00 0.00 83 1033.1
20180116014359 19 68 2.0 3.0 0.00 0.00 0.00 83 1033.3
20180116013401 20 82 0.0 3.0 0.00 0.00 0.00 83 1033.5
20180116012404 19 60 0.0 5.0 0.00 0.00 0.00 82 1033.5
20180116011401 20 39 0.0 3.0 0.00 0.00 0.00 82 1033.4
20180116010402 19 42 0.0 5.0 0.00 0.00 0.00 82 1033.4
20180116005403 19 63 2.0 5.0 0.00 0.00 0.00 81 1032.9
20180116004400 19 61 2.0 5.0 0.00 0.00 0.00 81 1032.9
20180116003403 19 33 1.0 5.0 0.00 0.00 0.00 81 1033.3
20180116002406 19 64 3.0 7.0 0.00 0.00 0.00 81 1033.1
20180116001400 19 51 2.0 6.0 0.00 0.00 0.00 80 1033.4
20180116000402 18 65 2.0 6.0 0.00 0.00 0.00 80 1033.3
20180115235404 19 126 2.0 7.0 0.00 0.00 0.00 80 1033.6
20180115234400 19 35 1.0 6.0 0.00 0.00 0.00 80 1033.8
20180115233402 19 77 2.0 5.0 0.00 0.00 0.00 79 1033.9
20180115232403 19 50 3.0 9.0 0.00 0.00 0.00 79 1033.8
20180115231401 19 66 1.0 6.0 0.00 0.00 0.00 79 1033.9
20180115230402 19 65 2.0 6.0 0.00 0.00 0.00 79 1033.8
20180115225405 19 44 2.0 7.0 0.00 0.00 0.00 78 1033.9
20180115224400 19 24 1.0 8.0 0.00 0.00 0.00 79 1033.9
20180115223402 20 68 2.0 8.0 0.00 0.00 0.00 79 1033.9
20180115222404 20 75 3.0 7.0 0.00 0.00 0.00 80 1034.0
20180115221402 20 67 3.0 7.0 0.00 0.00 0.00 81 1033.7
20180115220402 19 102 2.0 8.0 0.00 0.00 0.00 80 1033.8
20180115215404 20 40 2.0 7.0 0.00 0.00 0.00 82 1033.7
20180115214400 20 65 2.0 7.0 0.00 0.00 0.00 82 1033.5
20180115213402 20 84 3.0 8.0 0.00 0.00 0.00 82 1033.6
20180115212404 19 77 1.0 6.0 0.00 0.00 0.00 82 1033.8
20180115211359 21 92 2.0 9.0 0.00 0.00 0.00 82 1033.7
20180115210402 21 55 2.0 8.0 0.00 0.00 0.00 82 1033.8
20180115205403 21 58 3.0 7.0 0.00 0.00 0.00 83 1034.0
20180115204400 21 51 4.0 8.0 0.00 0.00 0.00 83 1034.0
20180115203402 22 70 3.0 8.0 0.00 0.00 0.00 83 1034.0
20180115202404 22 79 5.0 9.0 0.00 0.00 0.00 83 1034.0
20180115201400 23 75 3.0 7.0 0.00 0.00 0.00 84 1034.1
20180115200403 23 114 1.0 8.0 0.00 0.00 0.00 84 1034.1
20180115195403 22 58 2.0 5.0 0.00 0.00 0.00 85 1034.2
20180115194400 22 63 2.0 6.0 0.00 0.00 0.00 84 1034.1
20180115193402 23 130 3.0 7.0 0.00 0.00 0.00 84 1034.0
20180115192404 23 41 3.0 8.0 0.00 0.00 0.00 84 1034.0
20180115191400 22 65 2.0 6.0 0.00 0.00 0.00 84 1034.2
20180115190403 23 105 2.0 6.0 0.00 0.00 0.00 84 1034.5
20180115185404 22 26 2.0 7.0 0.00 0.00 0.00 84 1034.4
20180115184401 22 26 3.0 7.0 0.00 0.00 0.00 84 1034.4
20180115183402 23 76 3.0 8.0 0.00 0.00 0.00 83 1034.3
20180115182404 23 91 3.0 7.0 0.00 0.00 0.00 84 1034.4
20180115181359 23 76 2.0 7.0 0.00 0.00 0.00 84 1034.4
20180115180403 23 63 3.0 7.0 0.00 0.00 0.00 84 1034.5
20180115175404 23 39 2.0 7.0 0.00 0.00 0.00 84 1034.7
20180115174401 23 52 1.0 9.0 0.00 0.00 0.00 84 1035.0
20180115173402 22 19 1.0 5.0 0.00 0.00 0.00 85 1035.3
20180115172404 21 57 5.0 10.0 0.00 0.00 0.00 85 1035.8
20180115171400 21 12 2.0 8.0 0.00 0.00 0.00 85 1036.1
20180115170402 21 82 1.0 7.0 0.00 0.00 0.00 86 1036.5
20180115165404 21 110 3.0 8.0 0.00 0.00 0.00 86 1036.9
20180115164401 20 55 3.0 8.0 0.00 0.00 0.00 87 1036.9
20180115163402 19 81 4.0 8.0 0.00 0.00 0.00 88 1037.2
20180115162405 20 19 2.0 9.0 0.00 0.00 0.00 87 1037.6
20180115161401 19 97 4.0 7.0 0.00 0.00 0.00 88 1037.7
20180115160402 19 49 3.0 9.0 0.00 0.00 0.00 86 1037.9
20180115155403 17 86 3.0 8.0 0.00 0.00 0.00 88 1038.2
20180115154401 17 48 2.0 7.0 0.00 0.00 0.00 89 1038.5
20180115153403 17 64 3.0 9.0 0.00 0.00 0.00 90 1038.6
20180115152403 16 57 3.0 7.0 0.00 0.00 0.00 90 1038.8
20180115151400 15 64 4.0 8.0 0.00 0.00 0.00 90 1038.9
20180115150401 14 75 2.0 7.0 0.00 0.00 0.00 90 1039.0
20180115145403 16 72 3.0 9.0 0.00 0.00 0.00 88 1039.2
20180115144400 14 51 3.0 7.0 0.00 0.00 0.00 89 1039.2
20180115143402 13 51 3.0 8.0 0.00 0.00 0.00 89 1039.2
20180115142403 13 59 3.0 8.0 0.00 0.00 0.00 88 1039.3
20180115141400 13 94 3.0 7.0 0.00 0.00 0.00 90 1039.5
20180115140401 13 73 3.0 9.0 0.00 0.00 0.00 90 1039.3
20180115135404 13 100 2.0 8.0 0.00 0.00 0.00 90 1039.3
20180115134359 13 63 3.0 7.0 0.00 0.00 0.00 90 1039.4
20180115133402 13 66 4.0 8.0 0.00 0.00 0.00 90 1039.4
20180115132406 12 64 5.0 8.0 0.00 0.00 0.00 90 1039.5
20180115131400 12 46 2.0 8.0 0.00 0.00 0.00 90 1039.2
20180115130401 12 0 3.0 8.0 0.00 0.00 0.00 89 1039.2
20180115125403 11 77 5.0 12.0 0.00 0.00 0.00 90 1039.2
20180115124401 12 75 3.0 9.0 0.00 0.00 0.00 90 1039.1
20180115123403 12 51 2.0 9.0 0.00 0.00 0.00 90 1039.1
20180115122404 12 46 4.0 9.0 0.00 0.00 0.00 90 1038.9
20180115121401 12 69 3.0 8.0 0.00 0.00 0.00 91 1039.0
20180115120402 11 78 3.0 7.0 0.00 0.00 0.00 91 1039.1
20180115115401 11 57 3.0 7.0 0.00 0.00 0.00 91 1039.1
20180115114401 12 83 4.0 8.0 0.00 0.00 0.00 91 1039.3
20180115113403 11 51 3.0 9.0 0.00 0.00 0.00 91 1039.3
20180115112400 11 319 2.0 8.0 0.00 0.00 0.00 91 1039.3
20180115111401 11 43 3.0 7.0 0.00 0.00 0.00 91 1039.3
20180115110404 10 51 3.0 8.0 0.00 0.00 0.00 90 1039.2
20180115105359 11 47 3.0 9.0 0.00 0.00 0.00 90 1039.3
20180115104401 10 33 2.0 8.0 0.00 0.00 0.00 90 1039.3
20180115103403 10 48 2.0 8.0 0.00 0.00 0.00 90 1039.4
20180115102358 10 76 2.0 9.0 0.00 0.00 0.00 89 1039.4
20180115101400 10 62 3.0 7.0 0.00 0.00 0.00 89 1039.4
20180115100401 9 58 2.0 8.0 0.00 0.00 0.00 88 1039.2
20180115095358 10 48 3.0 8.0 0.00 0.00 0.00 88 1039.0
20180115094400 8 63 1.0 8.0 0.00 0.00 0.00 88 1039.0